Time,TemperatureF,DewpointF,PressureIn,WindDirection,WindDirectionDegrees,WindSpeedMPH,WindSpeedGustMPH,Humidity,HourlyPrecipIn,Conditions,Clouds,dailyrainin,SoftwareType,DateUTC
2013-06-13 00:02:00,76.0,75.0,29.96,West,280,0.0,0.0,96,0.00,,,0.00,,2013-06-13 05:02:00,
2013-06-13 00:12:00,76.0,75.0,29.96,West,263,0.0,1.0,96,0.00,,,0.00,,2013-06-13 05:12:00,
2013-06-13 00:24:00,76.0,75.0,29.96,West,263,0.0,1.0,96,0.00,,,0.00,,2013-06-13 05:24:00,
2013-06-13 00:33:00,76.0,74.0,29.96,West,261,0.0,1.0,95,0.00,,,0.00,,2013-06-13 05:33:00,
2013-06-13 00:43:00,76.0,74.0,29.96,West,261,0.0,0.0,95,0.00,,,0.00,,2013-06-13 05:43:00,
2013-06-13 00:53:00,76.0,74.0,29.96,West,261,0.0,0.0,95,0.00,,,0.00,,2013-06-13 05:53:00,
2013-06-13 01:02:00,76.0,74.0,29.95,WSW,242,0.0,1.0,95,0.00,,,0.00,,2013-06-13 06:02:00,
2013-06-13 01:11:00,76.0,74.0,29.95,SW,235,0.0,0.0,95,0.00,,,0.00,,2013-06-13 06:11:00,
2013-06-13 01:22:00,76.0,74.0,29.95,SW,235,0.0,0.0,95,0.00,,,0.00,,2013-06-13 06:22:00,
2013-06-13 01:33:00,76.0,74.0,29.95,West,264,0.0,2.0,95,0.00,,,0.00,,2013-06-13 06:33:00,
2013-06-13 01:44:00,76.0,74.0,29.94,West,278,0.0,1.0,95,0.00,,,0.00,,2013-06-13 06:44:00,
2013-06-13 01:52:00,76.0,74.0,29.94,West,278,0.0,1.0,95,0.00,,,0.00,,2013-06-13 06:52:00,
2013-06-13 02:01:00,76.0,74.0,29.94,West,278,0.0,1.0,95,0.00,,,0.00,,2013-06-13 07:01:00,
2013-06-13 02:12:00,76.0,74.0,29.95,WSW,245,0.0,3.0,95,0.00,,,0.00,,2013-06-13 07:12:00,
2013-06-13 02:22:00,76.0,74.0,29.95,WSW,245,0.0,3.0,95,0.00,,,0.00,,2013-06-13 07:22:00,
2013-06-13 02:33:00,75.0,73.0,29.94,West,277,0.0,2.0,95,0.00,,,0.00,,2013-06-13 07:33:00,
2013-06-13 02:42:00,75.0,73.0,29.94,West,277,0.0,1.0,95,0.00,,,0.00,,2013-06-13 07:42:00,
2013-06-13 02:52:00,75.0,73.0,29.94,West,277,0.0,1.0,95,0.00,,,0.00,,2013-06-13 07:52:00,
2013-06-13 03:01:00,75.0,73.0,29.94,West,277,0.0,1.0,95,0.00,,,0.00,,2013-06-13 08:01:00,
2013-06-13 03:11:00,75.0,73.0,29.94,West,277,0.0,1.0,95,0.00,,,0.00,,2013-06-13 08:11:00,
2013-06-13 03:22:00,75.0,73.0,29.94,West,277,0.0,1.0,95,0.00,,,0.00,,2013-06-13 08:22:00,
2013-06-13 03:43:00,75.0,73.0,29.94,WNW,293,0.0,2.0,94,0.00,,,0.00,,2013-06-13 08:43:00,
2013-06-13 03:52:00,75.0,73.0,29.94,WNW,293,0.0,2.0,94,0.00,,,0.00,,2013-06-13 08:52:00,
2013-06-13 04:02:00,75.0,73.0,29.94,WNW,293,0.0,2.0,94,0.00,,,0.00,,2013-06-13 09:02:00,
2013-06-13 04:12:00,74.0,72.0,29.93,West,281,0.0,1.0,95,0.00,,,0.00,,2013-06-13 09:12:00,
2013-06-13 04:22:00,74.0,72.0,29.93,West,281,0.0,1.0,95,0.00,,,0.00,,2013-06-13 09:22:00,
2013-06-13 04:32:00,74.0,72.0,29.93,WNW,295,0.0,1.0,95,0.00,,,0.00,,2013-06-13 09:32:00,
2013-06-13 04:42:00,74.0,72.0,29.94,WNW,300,0.0,1.0,95,0.00,,,0.00,,2013-06-13 09:42:00,
2013-06-13 04:52:00,74.0,72.0,29.94,WNW,300,0.0,1.0,95,0.00,,,0.00,,2013-06-13 09:52:00,
2013-06-13 05:01:00,74.0,73.0,29.94,WNW,295,0.0,1.0,96,0.00,,,0.00,,2013-06-13 10:01:00,
2013-06-13 05:11:00,73.0,72.0,29.94,West,273,0.0,1.0,96,0.00,,,0.00,,2013-06-13 10:11:00,
2013-06-13 05:22:00,73.0,72.0,29.94,West,273,0.0,1.0,96,0.00,,,0.00,,2013-06-13 10:22:00,
2013-06-13 05:33:00,73.0,72.0,29.94,WNW,285,0.0,1.0,96,0.00,,,0.00,,2013-06-13 10:33:00,
2013-06-13 05:43:00,73.0,72.0,29.95,WNW,285,0.0,0.0,96,0.00,,,0.00,,2013-06-13 10:43:00,
2013-06-13 05:53:00,73.0,72.0,29.95,WNW,285,0.0,0.0,96,0.00,,,0.00,,2013-06-13 10:53:00,
2013-06-13 06:02:00,73.0,72.0,29.95,WNW,285,0.0,0.0,96,0.00,,,0.00,,2013-06-13 11:02:00,
2013-06-13 06:12:00,73.0,72.0,29.95,WNW,285,0.0,1.0,96,0.00,,,0.00,,2013-06-13 11:12:00,
2013-06-13 06:24:00,73.0,72.0,29.95,WNW,285,0.0,1.0,96,0.00,,,0.00,,2013-06-13 11:24:00,
2013-06-13 06:32:00,73.0,72.0,29.95,WNW,285,0.0,1.0,96,0.00,,,0.00,,2013-06-13 11:32:00,
2013-06-13 06:42:00,74.0,73.0,29.96,WNW,285,0.0,1.0,96,0.00,,,0.00,,2013-06-13 11:42:00,
2013-06-13 06:52:00,74.0,73.0,29.96,WNW,285,0.0,1.0,96,0.00,,,0.00,,2013-06-13 11:52:00,
2013-06-13 07:01:00,74.0,73.0,29.96,WNW,285,0.0,1.0,96,0.00,,,0.00,,2013-06-13 12:01:00,
2013-06-13 07:12:00,75.0,73.0,29.96,West,259,0.0,3.0,93,0.00,,,0.00,,2013-06-13 12:12:00,
2013-06-13 07:22:00,75.0,73.0,29.96,West,259,0.0,3.0,93,0.00,,,0.00,,2013-06-13 12:22:00,
2013-06-13 07:35:00,77.0,74.0,29.96,WNW,291,0.0,2.0,91,0.00,,,0.00,,2013-06-13 12:35:00,
2013-06-13 07:43:00,78.0,74.0,29.96,West,278,0.0,3.0,89,0.00,,,0.00,,2013-06-13 12:43:00,
2013-06-13 07:52:00,78.0,74.0,29.96,West,278,0.0,3.0,89,0.00,,,0.00,,2013-06-13 12:52:00,
2013-06-13 08:02:00,79.0,75.0,29.96,West,259,0.0,4.0,87,0.00,,,0.00,,2013-06-13 13:02:00,
2013-06-13 08:11:00,79.0,75.0,29.96,West,259,0.0,4.0,87,0.00,,,0.00,,2013-06-13 13:11:00,
2013-06-13 08:22:00,80.0,75.0,29.97,West,271,0.0,4.0,85,0.00,,,0.00,,2013-06-13 13:22:00,
2013-06-13 08:32:00,81.0,75.0,29.97,West,262,0.0,3.0,82,0.00,,,0.00,,2013-06-13 13:32:00,
2013-06-13 08:43:00,81.0,75.0,29.97,West,262,0.0,3.0,82,0.00,,,0.00,,2013-06-13 13:43:00,
2013-06-13 08:53:00,82.0,75.0,29.97,West,274,0.0,3.0,80,0.00,,,0.00,,2013-06-13 13:53:00,
2013-06-13 09:02:00,82.0,75.0,29.97,West,274,0.0,3.0,80,0.00,,,0.00,,2013-06-13 14:02:00,
2013-06-13 09:11:00,83.0,76.0,29.97,WNW,296,0.0,6.0,80,0.00,,,0.00,,2013-06-13 14:11:00,
2013-06-13 09:22:00,84.0,76.0,29.97,WSW,245,1.0,6.0,76,0.00,,,0.00,,2013-06-13 14:22:00,
2013-06-13 09:33:00,84.0,76.0,29.97,WSW,245,1.0,6.0,76,0.00,,,0.00,,2013-06-13 14:33:00,
2013-06-13 09:43:00,84.0,76.0,29.97,WSW,245,1.0,6.0,76,0.00,,,0.00,,2013-06-13 14:43:00,
2013-06-13 09:53:00,86.0,75.0,29.96,West,262,1.0,6.0,71,0.00,,,0.00,,2013-06-13 14:53:00,
2013-06-13 10:02:00,86.0,75.0,29.96,West,262,1.0,6.0,71,0.00,,,0.00,,2013-06-13 15:02:00,
2013-06-13 10:12:00,87.0,76.0,29.96,WNW,282,1.0,7.0,69,0.00,,,0.00,,2013-06-13 15:12:00,
2013-06-13 10:22:00,87.0,74.0,29.96,WSW,242,3.0,6.0,66,0.00,,,0.00,,2013-06-13 15:22:00,
2013-06-13 10:33:00,88.0,75.0,29.96,West,272,3.0,6.0,65,0.00,,,0.00,,2013-06-13 15:33:00,
2013-06-13 10:43:00,88.0,75.0,29.96,West,272,3.0,6.0,65,0.00,,,0.00,,2013-06-13 15:43:00,
2013-06-13 10:53:00,89.0,76.0,29.96,WNW,288,1.0,5.0,65,0.00,,,0.00,,2013-06-13 15:53:00,
2013-06-13 11:02:00,89.0,74.0,29.95,West,276,4.0,9.0,61,0.00,,,0.00,,2013-06-13 16:02:00,
2013-06-13 11:12:00,89.0,74.0,29.95,West,276,4.0,9.0,61,0.00,,,0.00,,2013-06-13 16:12:00,
2013-06-13 11:22:00,90.0,76.0,29.95,NW,314,0.0,4.0,63,0.00,,,0.00,,2013-06-13 16:22:00,
2013-06-13 11:33:00,90.0,76.0,29.94,West,278,1.0,5.0,63,0.00,,,0.00,,2013-06-13 16:33:00,
2013-06-13 11:43:00,90.0,76.0,29.94,West,278,1.0,5.0,63,0.00,,,0.00,,2013-06-13 16:43:00,
2013-06-13 11:54:00,90.0,74.0,29.94,WNW,302,3.0,9.0,59,0.00,,,0.00,,2013-06-13 16:54:00,
2013-06-13 12:02:00,90.0,74.0,29.94,WNW,302,3.0,9.0,59,0.00,,,0.00,,2013-06-13 17:02:00,
2013-06-13 12:12:00,90.0,74.0,29.93,WNW,297,2.0,6.0,60,0.00,,,0.00,,2013-06-13 17:12:00,
2013-06-13 12:24:00,91.0,75.0,29.93,WNW,291,2.0,6.0,60,0.00,,,0.00,,2013-06-13 17:24:00,
2013-06-13 12:33:00,91.0,75.0,29.93,WNW,291,2.0,6.0,60,0.00,,,0.00,,2013-06-13 17:33:00,
2013-06-13 12:43:00,90.0,74.0,29.92,WNW,283,2.0,11.0,59,0.00,,,0.00,,2013-06-13 17:43:00,
2013-06-13 12:53:00,91.0,74.0,29.92,West,274,3.0,8.0,58,0.00,,,0.00,,2013-06-13 17:53:00,
2013-06-13 13:02:00,91.0,74.0,29.92,West,274,3.0,8.0,58,0.00,,,0.00,,2013-06-13 18:02:00,
2013-06-13 13:11:00,91.0,75.0,29.91,West,278,1.0,9.0,60,0.00,,,0.00,,2013-06-13 18:11:00,
2013-06-13 13:22:00,90.0,76.0,29.91,West,278,2.0,7.0,63,0.00,,,0.00,,2013-06-13 18:22:00,
2013-06-13 13:33:00,90.0,76.0,29.91,West,278,2.0,7.0,63,0.00,,,0.00,,2013-06-13 18:33:00,
2013-06-13 13:43:00,91.0,77.0,29.90,WNW,284,0.0,3.0,63,0.00,,,0.00,,2013-06-13 18:43:00,
2013-06-13 13:52:00,90.0,74.0,29.90,WNW,282,2.0,8.0,60,0.00,,,0.00,,2013-06-13 18:52:00,
2013-06-13 14:01:00,90.0,74.0,29.90,WNW,282,2.0,8.0,60,0.00,,,0.00,,2013-06-13 19:01:00,
2013-06-13 14:11:00,91.0,75.0,29.89,West,277,3.0,9.0,59,0.00,,,0.00,,2013-06-13 19:11:00,
2013-06-13 14:22:00,91.0,75.0,29.88,WNW,287,0.0,6.0,59,0.00,,,0.00,,2013-06-13 19:22:00,
2013-06-13 14:33:00,92.0,74.0,29.88,WNW,285,2.0,6.0,56,0.00,,,0.00,,2013-06-13 19:33:00,
2013-06-13 14:43:00,92.0,74.0,29.88,WNW,285,2.0,6.0,56,0.00,,,0.00,,2013-06-13 19:43:00,
2013-06-13 14:53:00,93.0,75.0,29.87,WSW,238,2.0,10.0,57,0.00,,,0.00,,2013-06-13 19:53:00,
2013-06-13 15:02:00,93.0,75.0,29.87,WSW,238,2.0,10.0,57,0.00,,,0.00,,2013-06-13 20:02:00,
2013-06-13 15:11:00,92.0,75.0,29.86,West,281,2.0,7.0,57,0.00,,,0.00,,2013-06-13 20:11:00,
2013-06-13 15:22:00,93.0,75.0,29.86,West,276,3.0,7.0,56,0.00,,,0.00,,2013-06-13 20:22:00,
2013-06-13 15:33:00,93.0,75.0,29.85,WNW,287,1.0,8.0,57,0.00,,,0.00,,2013-06-13 20:33:00,
2013-06-13 15:44:00,93.0,75.0,29.85,WNW,287,1.0,8.0,57,0.00,,,0.00,,2013-06-13 20:44:00,
2013-06-13 15:53:00,92.0,75.0,29.85,East,96,1.0,7.0,57,0.00,,,0.00,,2013-06-13 20:53:00,
2013-06-13 16:02:00,92.0,73.0,29.84,West,273,2.0,7.0,55,0.00,,,0.00,,2013-06-13 21:02:00,
2013-06-13 16:11:00,92.0,73.0,29.84,West,273,2.0,7.0,55,0.00,,,0.00,,2013-06-13 21:11:00,
2013-06-13 16:22:00,93.0,74.0,29.83,WSW,245,3.0,11.0,54,0.00,,,0.00,,2013-06-13 21:22:00,
2013-06-13 16:34:00,92.0,75.0,29.83,NNW,347,0.0,5.0,58,0.00,,,0.00,,2013-06-13 21:34:00,
2013-06-13 16:43:00,92.0,75.0,29.83,NNW,347,0.0,5.0,58,0.00,,,0.00,,2013-06-13 21:43:00,
2013-06-13 16:52:00,92.0,73.0,29.83,West,266,4.0,11.0,55,0.00,,,0.00,,2013-06-13 21:52:00,
2013-06-13 17:02:00,92.0,73.0,29.83,West,266,4.0,11.0,55,0.00,,,0.00,,2013-06-13 22:02:00,
2013-06-13 17:11:00,92.0,73.0,29.82,West,277,3.0,7.0,55,0.00,,,0.00,,2013-06-13 22:11:00,
2013-06-13 17:22:00,92.0,73.0,29.82,West,271,2.0,8.0,54,0.00,,,0.00,,2013-06-13 22:22:00,
2013-06-13 17:33:00,92.0,73.0,29.82,West,271,2.0,8.0,54,0.00,,,0.00,,2013-06-13 22:33:00,
2013-06-13 17:43:00,92.0,74.0,29.81,WNW,284,2.0,10.0,56,0.00,,,0.00,,2013-06-13 22:43:00,
2013-06-13 17:52:00,91.0,73.0,29.81,West,274,2.0,6.0,56,0.00,,,0.00,,2013-06-13 22:52:00,
2013-06-13 18:02:00,91.0,73.0,29.81,West,274,2.0,6.0,56,0.00,,,0.00,,2013-06-13 23:02:00,
2013-06-13 18:11:00,91.0,74.0,29.80,WNW,287,1.0,6.0,57,0.00,,,0.00,,2013-06-13 23:11:00,
2013-06-13 18:22:00,90.0,73.0,29.80,West,281,1.0,7.0,57,0.00,,,0.00,,2013-06-13 23:22:00,
2013-06-13 18:32:00,90.0,75.0,29.80,WNW,287,0.0,4.0,61,0.00,,,0.00,,2013-06-13 23:32:00,
2013-06-13 18:43:00,90.0,75.0,29.80,WNW,287,0.0,4.0,61,0.00,,,0.00,,2013-06-13 23:43:00,
2013-06-13 18:52:00,88.0,75.0,29.80,WNW,283,0.0,3.0,65,0.00,,,0.00,,2013-06-13 23:52:00,
2013-06-13 19:01:00,88.0,74.0,29.80,WNW,293,0.0,2.0,64,0.00,,,0.00,,2013-06-14 00:01:00,
2013-06-13 19:12:00,88.0,74.0,29.80,WNW,293,0.0,2.0,64,0.00,,,0.00,,2013-06-14 00:12:00,
2013-06-13 19:22:00,86.0,74.0,29.80,West,271,0.0,1.0,67,0.00,,,0.00,,2013-06-14 00:22:00,
2013-06-13 19:34:00,85.0,75.0,29.80,West,271,0.0,0.0,71,0.00,,,0.00,,2013-06-14 00:34:00,
2013-06-13 19:43:00,85.0,75.0,29.80,West,271,0.0,0.0,71,0.00,,,0.00,,2013-06-14 00:43:00,
2013-06-13 19:53:00,83.0,73.0,29.80,West,271,0.0,0.0,73,0.00,,,0.00,,2013-06-14 00:53:00,
2013-06-13 20:01:00,82.0,73.0,29.80,West,273,0.0,0.0,75,0.00,,,0.00,,2013-06-14 01:01:00,
2013-06-13 20:11:00,82.0,73.0,29.80,West,273,0.0,0.0,75,0.00,,,0.00,,2013-06-14 01:11:00,
2013-06-13 20:22:00,81.0,73.0,29.80,West,272,0.0,0.0,76,0.00,,,0.00,,2013-06-14 01:22:00,
2013-06-13 20:32:00,81.0,73.0,29.80,West,272,0.0,0.0,78,0.00,,,0.00,,2013-06-14 01:32:00,
2013-06-13 20:43:00,81.0,73.0,29.80,West,272,0.0,0.0,78,0.00,,,0.00,,2013-06-14 01:43:00,
2013-06-13 20:53:00,80.0,73.0,29.81,West,272,0.0,0.0,80,0.00,,,0.00,,2013-06-14 01:53:00,
2013-06-13 21:02:00,79.0,73.0,29.81,West,273,0.0,0.0,81,0.00,,,0.00,,2013-06-14 02:02:00,
2013-06-13 21:11:00,79.0,73.0,29.81,West,273,0.0,0.0,81,0.00,,,0.00,,2013-06-14 02:11:00,
2013-06-13 21:22:00,79.0,74.0,29.81,West,272,0.0,0.0,84,0.00,,,0.00,,2013-06-14 02:22:00,
2013-06-13 21:32:00,78.0,73.0,29.81,West,271,0.0,0.0,86,0.00,,,0.00,,2013-06-14 02:32:00,
2013-06-13 21:43:00,78.0,73.0,29.81,West,271,0.0,0.0,86,0.00,,,0.00,,2013-06-14 02:43:00,
2013-06-13 21:53:00,78.0,74.0,29.82,West,273,0.0,0.0,87,0.00,,,0.00,,2013-06-14 02:53:00,
2013-06-13 22:02:00,78.0,74.0,29.83,West,271,0.0,0.0,88,0.00,,,0.00,,2013-06-14 03:02:00,
2013-06-13 22:12:00,78.0,74.0,29.83,West,271,0.0,0.0,88,0.00,,,0.00,,2013-06-14 03:12:00,
2013-06-13 22:22:00,78.0,74.0,29.82,WSW,239,0.0,1.0,89,0.00,,,0.00,,2013-06-14 03:22:00,
2013-06-13 22:34:00,79.0,75.0,29.82,SW,228,0.0,2.0,88,0.00,,,0.00,,2013-06-14 03:34:00,
2013-06-13 22:43:00,79.0,75.0,29.82,SW,228,0.0,2.0,88,0.00,,,0.00,,2013-06-14 03:43:00,
2013-06-13 22:53:00,79.0,75.0,29.84,West,263,0.0,3.0,87,0.00,,,0.00,,2013-06-14 03:53:00,
2013-06-13 23:01:00,79.0,75.0,29.84,West,263,0.0,3.0,87,0.00,,,0.00,,2013-06-14 04:01:00,
2013-06-13 23:12:00,79.0,75.0,29.85,West,276,0.0,1.0,87,0.00,,,0.00,,2013-06-14 04:12:00,
2013-06-13 23:22:00,79.0,75.0,29.83,SW,222,0.0,1.0,89,0.00,,,0.00,,2013-06-14 04:22:00,
2013-06-13 23:33:00,79.0,75.0,29.83,SW,222,0.0,1.0,89,0.00,,,0.00,,2013-06-14 04:33:00,
2013-06-13 23:43:00,79.0,75.0,29.82,SW,228,0.0,3.0,88,0.00,,,0.00,,2013-06-14 04:43:00,
2013-06-13 23:53:00,79.0,75.0,29.83,West,267,0.0,1.0,88,0.00,,,0.00,,2013-06-14 04:53:00,